When you browse on this site, cookies collect data to enhance your experience and personalize the content and advertising you see.
Visit our Privacy Policy to learn more. By continuing to use the site, you agree to this use of cookies and data.
  • In Latvia
  • List of Countries
  • For 7 days
  • Water Temperature
  • Satellite Maps
  • Weather Map
  • Weather Widgets
  • user-avatar
    Login

    Hourly Weather Newport

    Today, 27 March, Wednesday

    Time Temperature Precipitation Wind Pressure Humidity
    00:00 +9°C° 0 mm 1 mps 772 mmHg 80%
    01:00 +8°C° 0 mm 2 mps 772 mmHg 82%
    02:00 +7°C° 0 mm 2 mps 772 mmHg 85%
    03:00 +5°C° 0 mm 3 mps 772 mmHg 88%
    04:00 +5°C° 0 mm 3 mps 772 mmHg 87%
    05:00 +4°C° 0 mm 3 mps 772 mmHg 87%
    06:00 +4°C° 0 mm 4 mps 772 mmHg 86%
    07:00 +5°C° 0 mm 3 mps 772 mmHg 82%
    08:00 +7°C° 0 mm 3 mps 773 mmHg 78%
    09:00 +9°C° 0 mm 3 mps 773 mmHg 73%
    10:00 +10°C° 0 mm 2 mps 773 mmHg 70%
    11:00 +12°C° 0 mm 2 mps 773 mmHg 68%
    12:00 +13°C° 0 mm 1 mps 773 mmHg 65%
    13:00 +13°C° 0 mm 2 mps 773 mmHg 66%
    14:00 +14°C° 0 mm 2 mps 773 mmHg 66%
    15:00 +14°C° 0 mm 2 mps 773 mmHg 67%
    16:00 +13°C° 0 mm 2 mps 773 mmHg 70%
    17:00 +12°C° 0 mm 1 mps 773 mmHg 74%
    18:00 +12°C° 0 mm 1 mps 773 mmHg 77%
    19:00 +11°C° 0 mm 1 mps 773 mmHg 80%
    20:00 +10°C° 0 mm 1 mps 773 mmHg 82%
    21:00 +8°C° 0 mm 0 mps 774 mmHg 85%
    22:00 +9°C° 0 mm 1 mps 774 mmHg 86%
    23:00 +9°C° 0 mm 1 mps 774 mmHg 88%

    Tomorrow, 28 March, Thursday

    Time Temperature Precipitation Wind Pressure Humidity
    00:00 +8°C° 0 mm 1 mps 774 mmHg 89%
    01:00 +7°C° 0 mm 2 mps 774 mmHg 90%
    02:00 +7°C° 0 mm 2 mps 774 mmHg 91%
    03:00 +6°C° 0 mm 2 mps 774 mmHg 91%
    04:00 +6°C° 0 mm 2 mps 774 mmHg 91%
    05:00 +6°C° 0 mm 2 mps 774 mmHg 91%
    06:00 +6°C° 0 mm 2 mps 774 mmHg 91%
    07:00 +7°C° 0 mm 2 mps 774 mmHg 86%
    08:00 +8°C° 0 mm 2 mps 774 mmHg 81%
    09:00 +10°C° 0 mm 2 mps 775 mmHg 76%
    10:00 +12°C° 0 mm 2 mps 774 mmHg 71%
    11:00 +14°C° 0 mm 1 mps 774 mmHg 67%
    12:00 +14°C° 0 mm 0 mps 774 mmHg 63%
    13:00 +15°C° 0 mm 1 mps 774 mmHg 61%
    14:00 +15°C° 0 mm 1 mps 773 mmHg 60%
    15:00 +16°C° 0 mm 2 mps 773 mmHg 59%
    16:00 +14°C° 0 mm 2 mps 773 mmHg 66%
    17:00 +13°C° 0 mm 2 mps 772 mmHg 72%
    18:00 +12°C° 0 mm 2 mps 772 mmHg 78%
    19:00 +10°C° 0 mm 2 mps 772 mmHg 82%
    20:00 +9°C° 0 mm 2 mps 773 mmHg 85%
    21:00 +9°C° 0 mm 1 mps 773 mmHg 88%
    22:00 +9°C° 0 mm 1 mps 772 mmHg 88%
    23:00 +9°C° 0 mm 1 mps 772 mmHg 88%

    Day after tomorrow, 29 March, Friday

    Time Temperature Precipitation Wind Pressure Humidity
    00:00 +8°C° 0 mm 0 mps 772 mmHg 88%
    01:00 +7°C° 0 mm 0 mps 772 mmHg 88%
    02:00 +7°C° 0 mm 0 mps 772 mmHg 88%
    03:00 +7°C° 0 mm 0 mps 772 mmHg 88%
    04:00 +7°C° 0 mm 0 mps 771 mmHg 88%
    05:00 +7°C° 0 mm 0 mps 771 mmHg 89%
    06:00 +7°C° 0 mm 0 mps 771 mmHg 89%
    07:00 +8°C° 0 mm 0 mps 771 mmHg 84%
    08:00 +11°C° 0 mm 1 mps 771 mmHg 80%
    09:00 +13°C° 0 mm 1 mps 771 mmHg 75%
    10:00 +13°C° 0 mm 1 mps 771 mmHg 71%
    11:00 +14°C° 0 mm 2 mps 770 mmHg 68%
    12:00 +15°C° 0 mm 2 mps 770 mmHg 64%
    13:00 +15°C° 0 mm 2 mps 770 mmHg 64%
    14:00 +15°C° 0 mm 2 mps 769 mmHg 65%
    15:00 +15°C° 0 mm 2 mps 769 mmHg 65%
    16:00 +14°C° 0 mm 1 mps 768 mmHg 70%
    17:00 +13°C° 0 mm 1 mps 768 mmHg 74%
    18:00 +12°C° 0 mm 1 mps 768 mmHg 79%
    19:00 +11°C° 0 mm 1 mps 768 mmHg 81%
    20:00 +10°C° 0 mm 1 mps 768 mmHg 84%
    21:00 +9°C° 0 mm 1 mps 768 mmHg 86%
    22:00 +9°C° 0 mm 1 mps 768 mmHg 86%
    23:00 +9°C° 0 mm 1 mps 768 mmHg 85%

    30 March, Saturday

    Time Temperature Precipitation Wind Pressure Humidity
    00:00 +9°C° 0 mm 1 mps 767 mmHg 85%
    01:00 +8°C° 0 mm 1 mps 767 mmHg 85%
    02:00 +8°C° 0 mm 1 mps 767 mmHg 86%
    03:00 +7°C° 0 mm 2 mps 766 mmHg 86%
    04:00 +7°C° 0 mm 2 mps 766 mmHg 86%
    05:00 +7°C° 0 mm 2 mps 766 mmHg 86%
    06:00 +7°C° 0 mm 2 mps 766 mmHg 87%
    07:00 +9°C° 0 mm 2 mps 765 mmHg 82%
    08:00 +11°C° 0 mm 1 mps 765 mmHg 78%
    09:00 +13°C° 0 mm 1 mps 765 mmHg 74%
    10:00 +14°C° 0 mm 1 mps 765 mmHg 72%
    11:00 +15°C° 0 mm 1 mps 765 mmHg 69%
    12:00 +16°C° 0 mm 1 mps 765 mmHg 67%
    13:00 +16°C° 0 mm 1 mps 764 mmHg 67%
    14:00 +16°C° 0 mm 2 mps 764 mmHg 67%
    15:00 +16°C° 0 mm 2 mps 764 mmHg 67%
    16:00 +15°C° 0 mm 2 mps 763 mmHg 71%
    17:00 +13°C° 0 mm 3 mps 763 mmHg 76%
    18:00 +12°C° 0 mm 3 mps 763 mmHg 80%
    19:00 +11°C° 0 mm 3 mps 763 mmHg 83%
    20:00 +10°C° 0 mm 3 mps 764 mmHg 86%
    21:00 +9°C° 0 mm 3 mps 764 mmHg 89%
    22:00 +8°C° 0 mm 4 mps 764 mmHg 87%
    23:00 +7°C° 0 mm 5 mps 764 mmHg 86%

    31 March, Sunday

    Time Temperature Precipitation Wind Pressure Humidity
    00:00 +7°C° 0 mm 6 mps 764 mmHg 85%
    01:00 +5°C° 0 mm 6 mps 764 mmHg 85%
    02:00 +5°C° 0 mm 6 mps 764 mmHg 85%
    03:00 +5°C° 0 mm 7 mps 764 mmHg 85%
    04:00 +5°C° 0 mm 7 mps 764 mmHg 85%
    05:00 +4°C° 0 mm 8 mps 765 mmHg 84%
    06:00 +4°C° 0 mm 8 mps 765 mmHg 83%
    07:00 +5°C° 0 mm 8 mps 766 mmHg 78%
    08:00 +6°C° 0 mm 8 mps 766 mmHg 72%
    09:00 +6°C° 0 mm 8 mps 767 mmHg 67%
    10:00 +7°C° 0 mm 8 mps 767 mmHg 63%
    11:00 +9°C° 0 mm 7 mps 768 mmHg 59%
    12:00 +9°C° 0 mm 7 mps 768 mmHg 55%
    13:00 +10°C° 0 mm 7 mps 768 mmHg 54%
    14:00 +10°C° 0 mm 7 mps 768 mmHg 53%
    15:00 +10°C° 0 mm 6 mps 767 mmHg 52%
    16:00 +9°C° 0 mm 7 mps 768 mmHg 54%
    17:00 +8°C° 0 mm 7 mps 768 mmHg 57%
    18:00 +8°C° 0 mm 7 mps 768 mmHg 59%
    19:00 +6°C° 0 mm 7 mps 768 mmHg 62%
    20:00 +5°C° 0 mm 7 mps 769 mmHg 65%
    21:00 +4°C° 0 mm 8 mps 769 mmHg 68%
    22:00 +2°C° 0 mm 8 mps 770 mmHg 69%
    23:00 +3°C° 0 mm 7 mps 770 mmHg 71%

    1 April, Monday

    Time Temperature Precipitation Wind Pressure Humidity
    00:00 +2°C° 0 mm 7 mps 770 mmHg 72%
    01:00 +2°C° 0 mm 7 mps 770 mmHg 72%
    02:00 +1°C° 0 mm 6 mps 769 mmHg 72%
    03:00 +1°C° 0 mm 6 mps 769 mmHg 72%
    04:00 0°C° 0 mm 5 mps 769 mmHg 73%
    05:00 0°C° 0 mm 5 mps 769 mmHg 75%
    06:00 0°C° 0 mm 5 mps 769 mmHg 76%
    07:00 +1°C° 0 mm 4 mps 769 mmHg 72%
    08:00 +3°C° 0 mm 4 mps 769 mmHg 68%
    09:00 +5°C° 0 mm 4 mps 770 mmHg 64%
    10:00 +7°C° 0 mm 3 mps 769 mmHg 60%
    11:00 +8°C° 0 mm 2 mps 769 mmHg 56%
    12:00 +9°C° 0 mm 1 mps 769 mmHg 53%
    13:00 +10°C° 0 mm 1 mps 768 mmHg 52%
    14:00 +10°C° 0 mm 1 mps 767 mmHg 51%
    15:00 +9°C° 0 mm 0 mps 767 mmHg 50%
    16:00 +10°C° 0 mm 1 mps 766 mmHg 54%
    17:00 +8°C° 0 mm 2 mps 766 mmHg 57%
    18:00 +7°C° 0 mm 2 mps 766 mmHg 61%
    19:00 +7°C° 0 mm 3 mps 766 mmHg 64%
    20:00 +5°C° 0 mm 3 mps 766 mmHg 68%
    21:00 +4°C° 0 mm 4 mps 766 mmHg 71%
    22:00 +4°C° 0 mm 4 mps 765 mmHg 73%
    23:00 +3°C° 0 mm 5 mps 765 mmHg 75%
    Show more